Date String (YYYY-MM-DD hh:mm:ss) UTC,Instrument flags,Ambient pressure (hPa),Sample flow (lpm),Bypass flow (lpm),Sample temperature (°C),Ambient temperature (°C),ASC tube jacket temperature (°C),LED temperature (°C),Box temperature (°C),Sample RH (%),Span deviation,Mass concentration (μg/m³),Mass concentration (μg/m³),Mass concentration (μg/m³)
DateTimeUTC,F1_M11,P_M11,Q1_M11,Q2_M11,T1_M11,T2_M11,T3_M11,T4_M11,T5_M11,U1_M11,ZSPAN_M11,X0_M11,X2_M11,X1_M11
2021-10-10 12:00:00,,0823.7,4.99,0.00,26.8,25.9,00.0,36.1,28.4,13.5,0000.0,0005.10,0001.87,0001.52
2021-10-10 12:01:00,,0823.8,5.00,0.00,26.7,25.9,00.0,36.1,28.4,13.6,0000.0,0005.10,0001.89,0001.53
2021-10-10 12:02:00,,0823.7,4.99,0.00,26.7,25.9,00.0,36.1,28.4,13.7,0000.0,0005.21,0001.94,0001.55
2021-10-10 12:03:00,,0823.7,5.01,0.00,26.7,25.8,00.0,36.0,28.4,13.7,0000.0,0005.39,0002.04,0001.58
2021-10-10 12:04:00,,0823.7,5.01,0.00,26.7,25.8,00.0,36.0,28.4,13.8,0000.0,0005.37,0002.07,0001.60
2021-10-10 12:05:00,,0823.8,5.01,0.00,26.6,25.8,00.0,36.0,28.3,13.7,0000.0,0005.18,0002.04,0001.62
2021-10-10 12:06:00,,0823.8,5.00,0.00,26.6,25.8,00.0,36.0,28.3,13.8,0000.0,0004.84,0002.05,0001.61
2021-10-10 12:07:00,,0823.8,5.00,0.00,26.6,25.7,00.0,36.0,28.3,13.8,0000.0,0004.89,0002.10,0001.62
2021-10-10 12:08:00,,0823.7,5.01,0.00,26.6,25.7,00.0,35.9,28.3,13.8,0000.0,0004.78,0002.13,0001.64
2021-10-10 12:09:00,,0823.8,4.99,0.00,26.6,25.7,00.0,35.9,28.3,13.8,0000.0,0005.02,0002.18,0001.64
2021-10-10 12:10:00,,0823.8,4.99,0.00,26.5,25.7,00.0,35.9,28.3,13.9,0000.0,0005.14,0002.20,0001.65
2021-10-10 12:11:00,,0823.8,5.01,0.00,26.5,25.7,00.0,35.9,28.2,13.9,0000.0,0005.16,0002.23,0001.66
2021-10-10 12:12:00,,0823.8,4.99,0.00,26.5,25.7,00.0,35.8,28.2,14.0,0000.0,0005.23,0002.24,0001.66
2021-10-10 12:13:00,,0823.8,5.01,0.00,26.5,25.7,00.0,35.8,28.2,14.0,0000.0,0005.32,0002.28,0001.67
2021-10-10 12:14:00,,0823.7,4.99,0.00,26.5,25.7,00.0,35.8,28.2,14.0,0000.0,0005.18,0002.22,0001.66
2021-10-10 12:15:00,,0823.7,5.01,0.00,26.4,25.6,00.0,35.8,28.1,14.1,0000.0,0005.37,0002.25,0001.66
2021-10-10 12:16:00,,0823.8,4.99,0.00,26.4,25.6,00.0,35.7,28.1,14.1,0000.0,0004.90,0002.31,0001.65
2021-10-10 12:17:00,,0823.8,5.01,0.00,26.4,25.6,00.0,35.7,28.1,14.2,0000.0,0004.29,0002.33,0001.66
2021-10-10 12:18:00,,0823.8,4.99,0.00,26.4,25.6,00.0,35.7,28.1,14.2,0000.0,0004.15,0002.32,0001.67
2021-10-10 12:19:00,,0823.8,5.00,0.00,26.4,25.6,00.0,35.7,28.1,14.2,0000.0,0004.34,0002.36,0001.68
2021-10-10 12:20:00,,0823.8,5.01,0.00,26.4,25.6,00.0,35.7,28.1,14.3,0000.0,0004.33,0002.36,0001.68
2021-10-10 12:21:00,,0823.8,5.00,0.00,26.4,25.6,00.0,35.7,28.1,14.3,0000.0,0004.65,0002.34,0001.68
2021-10-10 12:22:00,,0823.9,5.01,0.00,26.4,25.6,00.0,35.7,28.1,14.3,0000.0,0004.98,0002.33,0001.69
2021-10-10 12:23:00,,0823.9,5.00,0.00,26.3,25.6,00.0,35.6,28.1,14.3,0000.0,0004.92,0002.28,0001.69
2021-10-10 12:24:00,,0823.9,4.99,0.00,26.3,25.5,00.0,35.6,28.1,14.3,0000.0,0004.90,0002.25,0001.68
2021-10-10 12:25:00,,0823.9,5.00,0.00,26.3,25.5,00.0,35.6,28.1,14.3,0000.0,0004.90,0002.27,0001.70
2021-10-10 12:26:00,,0823.9,5.01,0.00,26.3,25.5,00.0,35.6,28.1,14.4,0000.0,0004.76,0002.23,0001.69
2021-10-10 12:27:00,,0823.9,5.01,0.00,26.3,25.5,00.0,35.6,28.1,14.4,0000.0,0004.51,0002.18,0001.69
2021-10-10 12:28:00,,0823.9,5.00,0.00,26.3,25.5,00.0,35.6,28.1,14.4,0000.0,0004.54,0002.20,0001.70
2021-10-10 12:29:00,,0823.9,4.99,0.00,26.3,25.5,00.0,35.6,28.0,14.5,0000.0,0004.64,0002.24,0001.69
2021-10-10 12:30:00,,0823.9,5.01,0.00,26.3,25.5,00.0,35.5,28.0,14.4,0000.0,0004.52,0002.20,0001.68
2021-10-10 12:31:00,,0823.9,5.00,0.00,26.3,25.5,00.0,35.5,28.0,14.4,0000.0,0005.03,0002.16,0001.67
2021-10-10 12:32:00,,0823.9,5.00,0.00,26.3,25.5,00.0,35.5,28.0,14.5,0000.0,0004.89,0002.18,0001.67
2021-10-10 12:33:00,,0823.9,4.99,0.00,26.3,25.5,00.0,35.5,28.0,14.5,0000.0,0005.32,0002.18,0001.66
2021-10-10 12:34:00,,0823.9,4.99,0.00,26.2,25.5,00.0,35.5,28.0,14.5,0000.0,0005.58,0002.26,0001.66
2021-10-10 12:35:00,,0823.9,5.01,0.00,26.2,25.5,00.0,35.5,28.0,14.5,0000.0,0006.76,0002.27,0001.68
2021-10-10 12:36:00,,0823.9,5.00,0.00,26.2,25.5,00.0,35.5,28.0,14.5,0000.0,0006.78,0002.26,0001.66
2021-10-10 12:37:00,,0823.9,5.02,0.00,26.2,25.4,00.0,35.5,28.0,14.6,0000.0,0006.69,0002.21,0001.65
2021-10-10 12:38:00,,0824.0,4.99,0.00,26.2,25.4,00.0,35.5,28.0,14.5,0000.0,0006.85,0002.22,0001.65
2021-10-10 12:39:00,,0823.9,5.00,0.00,26.2,25.5,00.0,35.4,28.0,14.5,0000.0,0007.22,0002.20,0001.67
2021-10-10 12:40:00,,0823.9,5.01,0.00,26.2,25.5,00.0,35.4,28.0,14.7,0000.0,0007.25,0002.19,0001.69
2021-10-10 12:41:00,,0823.8,5.01,0.00,26.2,25.4,00.0,35.4,27.9,14.7,0000.0,0007.30,0002.20,0001.71
2021-10-10 12:42:00,,0823.8,4.99,0.00,26.2,25.4,00.0,35.4,27.9,14.7,0000.0,0006.80,0002.23,0001.72
2021-10-10 12:43:00,,0823.8,4.99,0.00,26.2,25.4,00.0,35.4,27.9,14.7,0000.0,0006.63,0002.25,0001.72
2021-10-10 12:44:00,,0823.8,4.99,0.00,26.2,25.4,00.0,35.4,27.9,14.7,0000.0,0005.88,0002.29,0001.73
2021-10-10 12:45:00,,0823.7,5.00,0.00,26.1,25.4,00.0,35.4,27.9,14.7,0000.0,0005.77,0002.29,0001.74
2021-10-10 12:46:00,,0823.8,5.01,0.00,26.1,25.4,00.0,35.4,27.9,14.8,0000.0,0004.65,0002.32,0001.73
2021-10-10 12:47:00,,0823.8,5.02,0.00,26.2,25.4,00.0,35.4,27.9,14.7,0000.0,0004.76,0002.34,0001.74
2021-10-10 12:48:00,,0823.8,5.00,0.00,26.1,25.4,00.0,35.3,27.9,14.7,0000.0,0005.82,0002.41,0001.75
2021-10-10 12:49:00,,0823.8,5.00,0.00,26.1,25.4,00.0,35.3,27.9,14.7,0000.0,0005.75,0002.41,0001.76
2021-10-10 12:50:00,,0823.8,5.00,0.00,26.1,25.4,00.0,35.3,27.9,14.8,0000.0,0005.71,0002.45,0001.75
2021-10-10 12:51:00,,0823.8,5.00,0.00,26.1,25.4,00.0,35.3,27.9,14.7,0000.0,0006.32,0002.43,0001.73
2021-10-10 12:52:00,,0823.8,5.00,0.00,26.1,25.4,00.0,35.3,27.9,14.7,0000.0,0006.21,0002.41,0001.72
2021-10-10 12:53:00,,0823.8,5.01,0.00,26.1,25.4,00.0,35.3,27.9,14.6,0000.0,0006.83,0002.40,0001.72
2021-10-10 12:54:00,,0823.8,5.00,0.00,26.1,25.4,00.0,35.3,27.9,14.6,0000.0,0006.79,0002.37,0001.71
2021-10-10 12:55:00,,0823.9,5.01,0.00,26.1,25.4,00.0,35.3,27.9,14.5,0000.0,0006.73,0002.35,0001.70
2021-10-10 12:56:00,,0823.9,5.00,0.00,26.1,25.4,00.0,35.3,27.9,14.5,0000.0,0006.76,0002.36,0001.70
2021-10-10 12:57:00,,0823.9,5.00,0.00,26.1,25.4,00.0,35.3,27.9,14.4,0000.0,0006.78,0002.31,0001.69
2021-10-10 12:58:00,,0823.9,5.00,0.00,26.1,25.4,00.0,35.3,27.9,14.4,0000.0,0006.92,0002.33,0001.69
2021-10-10 12:59:00,,0823.8,5.00,0.00,26.1,25.3,00.0,35.3,27.9,14.4,0000.0,0006.12,0002.33,0001.69
